Theta_e
327 330 330 330 332 330 336 337 339 340 336 338 337 342 340 339 337 336 336 335 335 335 332 331 329 329 328 328 324 323 323 327 327 326 326 326 324 320 321 320 318 318 318 318
324 325 326 329 331 333 335 339 338 338 338 337 340 343 338 338 338 337 336 336 336 335 334 332 332 331 330 330 330 329 329 328 327 325 326 325 322 320 319 322 320 319 320 319
325 325 326 328 332 334 333 333 331 331 337 340 342 342 338 334 335 336 337 337 336 335 334 334 333 332 331 330 329 328 327 327 325 325 323 323 320 319 318 321 318 318 319 317
324 324 324 327 332 332 331 332 330 330 331 333 339 342 339 338 337 336 335 337 336 335 333 331 332 330 328 328 327 325 324 323 323 323 322 322 321 319 319 322 321 319 319 318
323 323 323 331 332 331 332 331 331 330 329 330 337 338 338 333 336 334 330 331 330 329 328 330 329 328 327 326 324 324 324 324 324 323 320 321 321 321 318 320 321 320 317 318
322 324 330 332 331 332 332 333 330 327 323 324 336 337 335 334 336 331 326 329 328 326 328 327 328 326 325 325 323 321 322 320 321 320 319 320 321 320 318 320 319 319 316 316
324 325 327 333 332 330 331 327 328 327 325 328 336 336 334 333 330 328 326 328 325 326 328 325 324 324 322 317 318 319 317 315 314 314 316 315 316 315 313 314 318 319 317 317
324 332 332 332 330 332 333 325 325 329 327 326 334 338 333 331 331 329 327 324 324 324 324 323 321 322 318 316 314 314 314 314 313 313 314 316 314 313 312 311 315 317 318 317
331 332 333 333 334 332 332 329 323 323 324 322 334 333 331 330 330 327 323 324 324 324 323 322 320 315 313 314 314 314 314 314 313 314 314 313 313 313 313 312 312 316 318 316
331 334 334 332 334 332 332 327 326 323 330 329 337 335 332 332 330 323 323 323 323 319 317 313 314 314 314 314 314 314 314 313 313 313 312 310 310 311 311 311 311 311 314 315
329 332 332 328 328 329 325 324 324 322 323 328 330 331 327 327 324 322 322 322 322 316 315 314 314 314 314 314 314 313 313 313 312 312 311 311 311 312 312 311 313 312 311 313
330 328 331 330 327 328 326 326 323 323 324 323 325 329 323 321 322 323 323 323 322 321 314 315 315 315 314 314 313 313 313 313 312 312 312 312 311 312 312 311 311 311 312 313
329 327 327 324 323 327 332 326 323 321 320 323 326 328 324 324 322 323 322 320 318 314 315 315 315 314 314 314 314 313 313 313 313 312 312 312 312 312 312 311 311 312 314 314
331 329 326 324 324 325 327 326 323 320 321 322 326 331 325 323 322 323 322 319 315 315 315 314 315 315 315 315 315 314 314 314 313 313 312 312 312 312 312 310 310 312 311 314
330 329 331 330 331 331 326 325 324 323 321 322 325 330 326 323 322 324 323 319 315 315 315 316 316 315 315 315 315 314 313 313 312 309 310 312 312 310 309 308 309 312 313 314
327 328 332 330 330 333 329 327 328 323 323 328 328 329 324 322 321 321 316 315 315 316 316 315 315 314 313 313 313 313 312 310 308 308 309 309 310 308 307 307 310 311 313 314
330 331 331 332 332 334 332 331 327 324 326 326 328 324 318 316 315 315 315 315 316 315 314 314 313 313 312 312 311 310 309 307 307 307 306 307 308 307 308 307 311 312 311 311
332 333 329 332 330 333 332 329 328 328 328 325 322 319 318 315 315 315 316 316 315 314 313 313 313 312 311 311 310 309 307 306 306 306 305 304 306 307 307 307 309 312 311 311
330 330 330 332 331 332 334 333 330 328 327 323 319 316 314 316 316 316 315 315 313 313 313 312 311 310 311 310 308 307 306 306 305 303 303 305 306 306 306 308 309 311 311 311
330 328 331 330 333 335 334 333 328 328 324 318 315 315 314 315 313 312 313 313 313 313 312 311 310 311 310 308 306 305 305 303 303 303 303 303 306 306 305 306 307 310 312 311
334 331 331 327 332 332 330 330 330 325 321 316 315 315 315 313 314 313 312 312 313 312 311 311 311 310 308 307 306 305 302 302 303 304 304 304 305 304 304 305 306 308 310 311
332 330 328 329 332 335 327 327 328 324 317 316 316 315 316 314 312 312 312 313 312 311 310 311 310 308 307 306 306 305 304 303 303 303 304 303 303 303 304 304 305 307 310 309
332 327 328 326 328 326 325 324 322 318 316 316 316 315 315 314 313 312 311 312 312 311 310 310 309 308 306 306 305 305 304 303 303 304 304 304 303 301 303 304 305 307 309 308
328 330 326 328 325 323 321 319 317 317 316 315 315 315 315 313 311 311 312 312 311 310 309 310 309 308 307 306 305 305 304 304 303 304 302 304 302 301 303 303 305 307 308 309
328 326 325 325 324 321 320 318 317 316 316 316 314 314 312 311 310 311 311 312 311 310 309 310 309 307 307 307 307 305 305 304 303 303 302 303 302 301 302 303 305 307 307 308
327 323 323 321 322 321 321 319 317 315 315 314 314 312 311 310 310 309 310 312 312 310 310 310 309 309 308 308 307 306 305 304 304 302 301 302 303 301 301 302 305 307 307 306
Wind_Speed
8 1 7 13 11 7 7 5 7 6 8 2 7 9 14 27 22 16 20 23 24 16 7 13 13 13 13 13 16 18 19 25 19 23 32 28 26 20 14 18 16 18 20 20
6 7 11 10 12 6 8 3 6 9 3 5 8 9 3 13 9 10 16 25 26 21 14 13 15 13 10 8 12 17 20 23 22 20 26 27 24 19 17 16 20 22 22 22
5 11 15 8 10 9 3 6 4 8 9 10 14 6 2 2 8 11 13 25 25 25 16 16 19 16 10 13 11 15 16 16 17 20 21 21 22 22 23 17 18 18 20 22
7 8 6 7 5 4 3 3 2 6 4 4 9 4 2 3 5 9 12 19 23 17 9 12 12 10 8 8 9 9 8 8 7 10 17 17 25 23 23 20 22 22 24 24
12 5 5 4 6 5 7 6 2 3 3 3 3 5 3 3 6 7 5 5 13 8 7 6 3 2 3 3 1 0 2 4 6 8 10 15 19 28 26 24 23 21 23 25
8 10 6 8 5 2 5 1 7 6 4 3 4 5 4 5 6 4 8 14 15 9 9 8 4 5 6 2 2 2 1 3 2 6 9 12 16 18 23 26 29 27 22 22
6 5 5 3 2 7 8 6 4 5 5 5 3 3 4 6 8 7 12 16 12 13 14 9 9 8 4 3 1 1 3 4 6 8 8 11 13 16 19 23 28 29 29 23
4 6 4 2 5 6 2 6 5 4 3 3 4 2 4 5 16 14 12 18 21 15 8 5 3 4 5 2 6 5 4 5 9 10 9 7 12 17 24 24 19 21 25 24
4 4 4 4 3 5 4 2 5 4 0 2 3 1 3 4 7 4 19 18 12 7 6 5 7 4 2 1 1 1 1 5 4 6 7 12 16 15 20 23 20 23 25 22
6 7 5 5 3 3 4 2 2 3 2 4 2 2 4 7 9 9 13 13 10 8 12 8 6 6 6 3 4 5 7 7 8 9 13 13 16 16 18 20 23 19 21 26
4 3 7 4 3 3 4 2 5 4 4 3 1 4 5 9 7 11 15 13 8 10 9 6 4 2 6 11 10 10 7 9 11 14 16 14 19 16 21 21 18 23 25 23
3 3 3 3 5 2 2 3 4 4 5 1 4 5 5 8 15 17 12 9 4 4 6 6 4 5 10 9 8 7 10 11 12 14 12 20 19 16 19 21 21 26 25 23
3 3 3 8 6 6 2 1 3 4 3 2 4 4 2 10 12 14 11 7 7 5 10 5 2 6 5 4 3 5 6 7 7 10 18 16 15 17 19 22 24 22 19 13
3 2 5 5 7 3 5 4 3 4 4 2 4 5 7 9 10 16 16 10 8 7 7 1 2 5 4 1 1 3 5 9 14 15 18 19 17 17 17 22 25 21 22 12
4 2 2 6 6 5 5 2 2 3 6 6 6 10 13 10 9 15 13 13 11 9 5 6 5 5 6 6 7 9 14 16 17 21 20 14 14 17 22 25 24 22 22 13
1 3 2 5 6 8 1 7 3 6 11 8 6 1 5 9 14 16 15 14 12 13 10 7 6 7 7 10 11 12 14 18 21 20 14 9 10 16 20 25 19 18 13 9
3 2 1 4 5 7 4 7 7 4 8 4 5 7 8 5 11 13 12 12 16 12 8 6 8 9 9 9 10 15 19 22 22 19 17 15 15 17 18 20 18 15 16 14
3 2 2 3 5 3 1 3 7 6 5 6 6 5 6 8 13 13 14 14 12 7 5 6 8 9 9 12 16 19 20 18 17 19 21 20 15 15 18 20 17 16 13 15
5 4 3 2 1 1 1 3 2 1 2 5 7 5 11 20 20 15 11 8 8 6 6 7 8 10 10 13 17 20 18 18 23 20 18 20 19 14 16 18 17 17 14 12
7 7 5 2 2 2 3 3 6 4 2 3 11 5 4 6 3 2 9 7 6 5 5 7 7 7 11 15 19 22 21 22 19 20 18 17 16 15 14 16 17 18 13 8
3 3 4 2 1 5 8 11 5 1 6 5 9 8 9 5 6 12 7 4 3 4 6 6 5 10 15 18 20 21 20 17 17 18 16 15 14 17 17 14 15 15 11 6
3 4 2 2 2 3 5 3 0 3 4 11 14 12 17 17 13 10 7 5 3 5 7 6 11 14 17 20 17 20 21 18 16 19 16 15 14 16 17 15 12 9 10 7
3 4 4 6 4 3 5 12 8 5 10 12 9 9 7 10 7 4 2 1 3 7 7 7 11 14 19 17 16 18 21 20 19 19 18 15 17 19 14 14 13 10 8 9
7 2 3 2 1 6 10 7 5 7 8 6 6 10 7 9 4 2 1 1 5 7 8 7 10 14 16 19 15 16 18 18 20 19 18 14 14 18 14 9 10 8 5 8
2 3 2 3 4 6 7 10 9 10 8 12 11 8 6 4 3 3 4 5 8 10 7 8 11 13 15 14 18 14 18 19 20 17 18 14 12 18 13 13 10 7 5 11
4 1 3 2 2 6 2 7 7 15 13 9 5 4 5 6 9 7 8 9 9 8 8 10 15 15 14 15 17 16 16 15 17 16 19 14 11 14 12 13 10 5 3 8
Wind_Direction
308 128 236 234 201 168 171 201 200 248 232 84 180 135 173 185 192 202 206 216 230 233 205 234 232 233 240 246 245 244 244 249 267 270 264 268 280 269 275 301 298 292 286 294
7 261 256 253 254 186 181 173 252 311 228 86 128 139 128 195 205 191 207 221 233 242 237 247 246 239 250 274 279 260 261 269 281 282 273 275 274 269 270 271 290 292 286 292
192 263 296 318 82 267 65 194 242 242 94 98 126 161 193 236 258 249 238 241 236 240 242 246 253 248 270 269 277 282 275 280 275 285 286 276 267 285 276 275 287 297 290 291
243 273 309 264 117 229 146 236 65 354 44 229 194 201 217 275 299 271 233 227 238 238 216 228 223 244 268 265 260 266 271 275 284 297 308 295 264 290 289 276 284 288 283 290
260 273 327 124 176 187 206 211 134 239 335 90 69 89 250 160 245 250 144 142 153 146 128 136 174 233 176 188 116 338 279 278 299 304 312 310 279 286 288 275 276 280 284 284
240 272 171 193 217 189 147 8 26 17 71 18 239 130 233 191 198 159 109 122 133 142 136 139 157 143 129 157 310 314 349 2 321 312 322 320 312 303 304 286 272 270 272 280
312 297 317 165 315 341 68 46 346 353 1 244 136 38 245 196 165 168 152 153 148 153 155 148 159 175 159 135 167 15 9 14 360 342 316 312 318 329 322 314 283 271 276 269
200 329 12 9 183 213 283 140 156 229 236 280 18 197 274 181 191 169 173 158 147 146 157 173 138 164 141 10 347 336 16 13 341 336 336 328 327 320 321 316 306 279 267 266
36 293 310 268 197 120 297 285 183 146 329 93 174 12 356 231 240 180 159 162 149 159 169 161 149 148 239 321 167 215 276 296 296 308 325 325 323 319 328 334 306 292 271 269
23 338 320 327 22 312 180 187 358 13 273 270 207 212 230 195 221 158 160 158 147 143 150 144 140 154 159 228 230 236 267 300 318 326 329 340 338 325 328 329 325 313 281 272
102 124 286 1 354 235 348 24 59 116 129 162 226 253 231 185 168 154 152 155 155 149 161 164 169 270 294 288 279 274 286 316 319 320 324 323 329 320 329 329 318 314 304 275
105 164 294 285 300 242 216 153 115 119 286 208 155 258 348 133 146 154 161 168 185 197 197 209 241 277 299 270 263 284 308 308 304 311 319 323 324 319 322 326 324 324 308 277
29 11 333 340 349 347 29 221 137 125 86 243 139 255 195 146 154 169 161 190 182 185 192 183 204 298 278 247 295 306 280 297 311 315 317 328 317 323 324 329 330 328 320 294
74 140 178 213 239 226 293 323 151 116 107 218 195 168 207 203 195 193 183 177 188 180 149 117 43 80 66 53 322 321 322 324 329 328 333 326 322 327 332 336 334 327 325 291
123 223 241 258 257 291 258 328 147 152 196 160 202 177 204 210 207 211 190 194 162 142 118 112 93 55 29 5 346 335 329 331 336 336 344 341 333 338 333 333 330 330 328 280
181 256 354 304 310 338 180 21 4 51 13 35 79 267 187 201 161 158 182 172 148 123 112 90 47 23 357 346 341 334 335 337 339 336 333 338 350 344 340 335 336 333 340 15
150 160 51 281 324 325 22 357 57 53 30 98 209 224 161 137 152 174 182 146 130 115 96 49 13 3 359 354 347 346 346 344 342 342 334 330 345 346 339 341 342 330 337 329
181 123 105 275 1 11 356 305 64 79 22 355 72 104 157 132 92 99 128 126 117 101 66 38 6 360 356 347 342 341 340 340 340 338 337 345 337 343 339 343 343 341 327 330
167 115 65 68 352 268 295 337 8 70 39 11 84 94 109 115 86 92 113 107 100 73 43 15 12 351 343 342 351 345 337 345 344 349 345 350 349 345 339 346 348 343 328 316
60 66 104 14 93 246 251 248 223 291 243 70 102 123 124 158 79 212 124 97 82 58 43 358 355 347 344 354 354 352 350 349 356 351 347 339 352 352 347 341 347 349 334 329
64 35 114 146 193 297 255 275 293 233 237 102 109 118 109 98 135 139 128 96 63 51 7 14 1 355 360 1 359 355 358 4 9 3 1 7 359 344 337 334 343 352 0 340
149 134 160 99 210 291 6 37 220 184 111 124 123 117 113 123 131 134 129 110 80 17 21 19 8 10 4 357 352 351 2 360 352 349 348 356 357 349 343 327 327 346 347 1
50 170 180 173 221 208 81 117 118 128 133 140 133 145 147 134 116 101 91 40 8 351 344 353 353 355 358 358 352 345 354 354 357 349 344 339 341 344 342 347 338 350 360 5
346 80 84 98 295 164 128 119 149 170 141 131 145 141 130 111 95 62 326 303 342 347 325 328 339 353 351 353 348 352 349 347 343 348 348 343 352 358 355 345 335 355 331 349
278 10 44 8 22 152 173 179 172 139 134 130 118 110 97 53 40 354 320 317 336 338 305 302 330 338 338 348 357 356 352 347 344 347 349 341 343 358 353 3 345 3 358 342
2 236 100 226 348 98 67 153 162 122 113 106 88 61 22 18 357 340 318 306 321 316 297 298 323 317 330 349 349 345 344 338 341 355 351 348 338 354 347 350 15 359 17 309